STARLINK-34425

Last updated on Thu Jul 03 2025 00:02:06 GMT+0000 (Coordinated Universal Time)

1 64350U 25126G 25183.58335648 -.01403150 00000+0 -16954-1 0 9996 2 64350 69.9995 310.2259 0003259 267.7636 306.7102 15.63223516 4327
UTC large
Height (km)
Speed (km/s)
/
Latitude / Longitude
Inclination (degrees)
Orbital Period (minutes)
Azimuth
Elevation
Range (km)
Doppler Factor

Next 0 passes for location: London (51.5072 / 0.1276)

Sorry there are no passes over London.